Location: Saluda
(35.2377°N, 82.3468°W)
Time: 14:23:18
(UTC+00:00)

SR - Pass Details

Date: 11 October 2022
Orbit: 577 x 875 km, 66.7° (Epoch: 28 November)

Event Time Altitude Azimuth Distance (km) Brightness Sun altitude
Rises 10:22:43 0° 321° (NW) 3,214 - -15.0°
Reaches altitude 10° 10:25:29 10° 310° (NW) 2,230 - -14.4°
Exits shadow 10:27:06 18° 297° (WNW) 1,733 ? -14.1°
Maximum altitude 10:29:42 27° 253° (WSW) 1,307 ? -13.6°
Drops below altitude 10° 10:33:38 10° 195° (SSW) 2,057 ? -12.8°
Sets 10:36:06 0° 183° (S) 2,916 ? -12.3°
